owner,sensor,date,latitude,longitude,sea_surface_height_above_sea_level,qcFlag 
COMPS,ioos:station:USF.COMPS:ANC:1,2013-02-01T00:00:00Z,28.1930,-82.7890,-0.374,1111122 
COMPS,ioos:station:USF.COMPS:ANC:1,2013-02-01T00:06:00Z,28.1930,-82.7890,-0.39,1111122 
COMPS,ioos:station:USF.COMPS:ANC:1,2013-02-01T00:12:00Z,28.1930,-82.7890,-0.41,1111122 
COMPS,ioos:station:USF.COMPS:ANC:1,2013-02-01T00:18:00Z,28.1930,-82.7890,-0.431,1111122 
COMPS,ioos:station:USF.COMPS:ANC:1,2013-02-01T00:24:00Z,28.1930,-82.7890,-0.445,1111122 
COMPS,ioos:station:USF.COMPS:ANC:1,2013-02-01T00:30:00Z,28.1930,-82.7890,-0.459,1111122 
COMPS,ioos:station:USF.COMPS:ANC:1,2013-02-01T00:36:00Z,28.1930,-82.7890,-0.477,1111122 
COMPS,ioos:station:USF.COMPS:ANC:1,2013-02-01T00:42:00Z,28.1930,-82.7890,-0.494,1111122 
COMPS,ioos:station:USF.COMPS:ANC:1,2013-02-01T00:48:00Z,28.1930,-82.7890,-0.505,1111122 
COMPS,ioos:station:USF.COMPS:ANC:1,2013-02-01T00:54:00Z,28.1930,-82.7890,-0.52,1111122 
COMPS,ioos:station:USF.COMPS:ANC:1,2013-02-01T01:00:00Z,28.1930,-82.7890,-0.498,1111122 
COMPS,ioos:station:USF.COMPS:ANC:1,2013-02-01T01:06:00Z,28.1930,-82.7890,-0.495,1111122 
COMPS,ioos:station:USF.COMPS:ANC:1,2013-02-01T01:12:00Z,28.1930,-82.7890,-0.495,1111122 
COMPS,ioos:station:USF.COMPS:ANC:1,2013-02-01T01:18:00Z,28.1930,-82.7890,-0.495,1111122 
COMPS,ioos:station:USF.COMPS:ANC:1,2013-02-01T01:24:00Z,28.1930,-82.7890,-0.495,1111122 
COMPS,ioos:station:USF.COMPS:ANC:1,2013-02-01T01:30:00Z,28.1930,-82.7890,-0.495,1111122 
COMPS,ioos:station:USF.COMPS:ANC:1,2013-02-01T01:36:00Z,28.1930,-82.7890,-0.495,1111122 
COMPS,ioos:station:USF.COMPS:ANC:1,2013-02-01T01:42:00Z,28.1930,-82.7890,-0.495,1111122 
COMPS,ioos:station:USF.COMPS:ANC:1,2013-02-01T01:48:00Z,28.1930,-82.7890,-0.495,1111122 
COMPS,ioos:station:USF.COMPS:ANC:1,2013-02-01T01:54:00Z,28.1930,-82.7890,-0.495,1111122 
COMPS,ioos:station:USF.COMPS:ANC:1,2013-02-01T02:00:00Z,28.1930,-82.7890,-0.495,1111122 
COMPS,ioos:station:USF.COMPS:ANC:1,2013-02-01T02:06:00Z,28.1930,-82.7890,-0.495,1111122 
COMPS,ioos:station:USF.COMPS:ANC:1,2013-02-01T02:12:00Z,28.1930,-82.7890,-0.495,1111122 
COMPS,ioos:station:USF.COMPS:ANC:1,2013-02-01T02:18:00Z,28.1930,-82.7890,-0.495,1111122 
COMPS,ioos:station:USF.COMPS:ANC:1,2013-02-01T02:24:00Z,28.1930,-82.7890,-0.494,1111122 
COMPS,ioos:station:USF.COMPS:ANC:1,2013-02-01T02:30:00Z,28.1930,-82.7890,-0.495,1111122 
COMPS,ioos:station:USF.COMPS:ANC:1,2013-02-01T02:36:00Z,28.1930,-82.7890,-0.494,1111122 
COMPS,ioos:station:USF.COMPS:ANC:1,2013-02-01T02:42:00Z,28.1930,-82.7890,-0.494,1111122 
COMPS,ioos:station:USF.COMPS:ANC:1,2013-02-01T02:48:00Z,28.1930,-82.7890,-0.494,1111122 
COMPS,ioos:station:USF.COMPS:ANC:1,2013-02-01T02:54:00Z,28.1930,-82.7890,-0.494,1111122 
COMPS,ioos:station:USF.COMPS:ANC:1,2013-02-01T03:00:00Z,28.1930,-82.7890,-0.494,1111122 
COMPS,ioos:station:USF.COMPS:ANC:1,2013-02-01T03:06:00Z,28.1930,-82.7890,-0.494,1111122 
COMPS,ioos:station:USF.COMPS:ANC:1,2013-02-01T03:12:00Z,28.1930,-82.7890,-0.494,1111122 
COMPS,ioos:station:USF.COMPS:ANC:1,2013-02-01T03:18:00Z,28.1930,-82.7890,-0.539,1111122 
COMPS,ioos:station:USF.COMPS:ANC:1,2013-02-01T03:24:00Z,28.1930,-82.7890,-0.531,1111122 
COMPS,ioos:station:USF.COMPS:ANC:1,2013-02-01T03:30:00Z,28.1930,-82.7890,-0.507,1111122 
COMPS,ioos:station:USF.COMPS:ANC:1,2013-02-01T03:36:00Z,28.1930,-82.7890,-0.487,1111122 
COMPS,ioos:station:USF.COMPS:ANC:1,2013-02-01T03:42:00Z,28.1930,-82.7890,-0.463,1111122 
COMPS,ioos:station:USF.COMPS:ANC:1,2013-02-01T03:48:00Z,28.1930,-82.7890,-0.447,1111122 
COMPS,ioos:station:USF.COMPS:ANC:1,2013-02-01T03:54:00Z,28.1930,-82.7890,-0.426,1111122 
COMPS,ioos:station:USF.COMPS:ANC:1,2013-02-01T04:00:00Z,28.1930,-82.7890,-0.407,1111122 
COMPS,ioos:station:USF.COMPS:ANC:1,2013-02-01T04:06:00Z,28.1930,-82.7890,-0.387,1111122 
COMPS,ioos:station:USF.COMPS:ANC:1,2013-02-01T04:12:00Z,28.1930,-82.7890,-0.37,1111122 
COMPS,ioos:station:USF.COMPS:ANC:1,2013-02-01T04:18:00Z,28.1930,-82.7890,-0.36,1111122 
COMPS,ioos:station:USF.COMPS:ANC:1,2013-02-01T04:24:00Z,28.1930,-82.7890,-0.345,1111122 
COMPS,ioos:station:USF.COMPS:ANC:1,2013-02-01T04:30:00Z,28.1930,-82.7890,-0.33,1111122 
COMPS,ioos:station:USF.COMPS:ANC:1,2013-02-01T04:36:00Z,28.1930,-82.7890,-0.313,1111122 
COMPS,ioos:station:USF.COMPS:ANC:1,2013-02-01T04:42:00Z,28.1930,-82.7890,-0.295,1111122 
COMPS,ioos:station:USF.COMPS:ANC:1,2013-02-01T04:48:00Z,28.1930,-82.7890,-0.286,1111122 
COMPS,ioos:station:USF.COMPS:ANC:1,2013-02-01T04:54:00Z,28.1930,-82.7890,-0.276,1111122 
COMPS,ioos:station:USF.COMPS:ANC:1,2013-02-01T05:00:00Z,28.1930,-82.7890,-0.253,1111122 
COMPS,ioos:station:USF.COMPS:ANC:1,2013-02-01T05:06:00Z,28.1930,-82.7890,-0.234,1111122 
COMPS,ioos:station:USF.COMPS:ANC:1,2013-02-01T05:12:00Z,28.1930,-82.7890,-0.232,1111122 
COMPS,ioos:station:USF.COMPS:ANC:1,2013-02-01T05:18:00Z,28.1930,-82.7890,-0.22,1111122 
COMPS,ioos:station:USF.COMPS:ANC:1,2013-02-01T05:24:00Z,28.1930,-82.7890,-0.195,1111122 
COMPS,ioos:station:USF.COMPS:ANC:1,2013-02-01T05:30:00Z,28.1930,-82.7890,-0.172,1111122 
COMPS,ioos:station:USF.COMPS:ANC:1,2013-02-01T05:36:00Z,28.1930,-82.7890,-0.159,1111122 
COMPS,ioos:station:USF.COMPS:ANC:1,2013-02-01T05:42:00Z,28.1930,-82.7890,-0.14,1111122 
COMPS,ioos:station:USF.COMPS:ANC:1,2013-02-01T05:48:00Z,28.1930,-82.7890,-0.123,1111122 
COMPS,ioos:station:USF.COMPS:ANC:1,2013-02-01T05:54:00Z,28.1930,-82.7890,-0.118,1111122 
COMPS,ioos:station:USF.COMPS:ANC:1,2013-02-01T06:00:00Z,28.1930,-82.7890,-0.109,1111122 
COMPS,ioos:station:USF.COMPS:ANC:1,2013-02-01T06:06:00Z,28.1930,-82.7890,-0.095,1111122 
COMPS,ioos:station:USF.COMPS:ANC:1,2013-02-01T06:12:00Z,28.1930,-82.7890,-0.088,1111122 
COMPS,ioos:station:USF.COMPS:ANC:1,2013-02-01T06:18:00Z,28.1930,-82.7890,-0.084,1111122 
COMPS,ioos:station:USF.COMPS:ANC:1,2013-02-01T06:24:00Z,28.1930,-82.7890,-0.075,1111122 
COMPS,ioos:station:USF.COMPS:ANC:1,2013-02-01T06:30:00Z,28.1930,-82.7890,-0.069,1111122 
COMPS,ioos:station:USF.COMPS:ANC:1,2013-02-01T06:36:00Z,28.1930,-82.7890,-0.058,1111122 
COMPS,ioos:station:USF.COMPS:ANC:1,2013-02-01T06:42:00Z,28.1930,-82.7890,-0.047,1111122 
COMPS,ioos:station:USF.COMPS:ANC:1,2013-02-01T06:48:00Z,28.1930,-82.7890,-0.042,1111122 
COMPS,ioos:station:USF.COMPS:ANC:1,2013-02-01T06:54:00Z,28.1930,-82.7890,-0.044,1111122 
COMPS,ioos:station:USF.COMPS:ANC:1,2013-02-01T07:00:00Z,28.1930,-82.7890,-0.041,1111122 
COMPS,ioos:station:USF.COMPS:ANC:1,2013-02-01T07:06:00Z,28.1930,-82.7890,-0.033,1111122 
COMPS,ioos:station:USF.COMPS:ANC:1,2013-02-01T07:12:00Z,28.1930,-82.7890,-0.018,1111122 
COMPS,ioos:station:USF.COMPS:ANC:1,2013-02-01T07:18:00Z,28.1930,-82.7890,-0.011,1111122 
COMPS,ioos:station:USF.COMPS:ANC:1,2013-02-01T07:24:00Z,28.1930,-82.7890,-0.025,1111122 
COMPS,ioos:station:USF.COMPS:ANC:1,2013-02-01T07:30:00Z,28.1930,-82.7890,-0.021,1111122 
COMPS,ioos:station:USF.COMPS:ANC:1,2013-02-01T07:36:00Z,28.1930,-82.7890,-0.002,1111122 
COMPS,ioos:station:USF.COMPS:ANC:1,2013-02-01T07:42:00Z,28.1930,-82.7890,-0.01,1111122 
COMPS,ioos:station:USF.COMPS:ANC:1,2013-02-01T07:48:00Z,28.1930,-82.7890,-0.022,1111122 
COMPS,ioos:station:USF.COMPS:ANC:1,2013-02-01T07:54:00Z,28.1930,-82.7890,-0.02,1111122 
COMPS,ioos:station:USF.COMPS:ANC:1,2013-02-01T08:00:00Z,28.1930,-82.7890,-0.014,1111122 
COMPS,ioos:station:USF.COMPS:ANC:1,2013-02-01T08:06:00Z,28.1930,-82.7890,-0.016,1111122 
COMPS,ioos:station:USF.COMPS:ANC:1,2013-02-01T08:12:00Z,28.1930,-82.7890,-0.023,1111122 
COMPS,ioos:station:USF.COMPS:ANC:1,2013-02-01T08:18:00Z,28.1930,-82.7890,-0.023,1111122 
COMPS,ioos:station:USF.COMPS:ANC:1,2013-02-01T08:24:00Z,28.1930,-82.7890,-0.025,1111122 
COMPS,ioos:station:USF.COMPS:ANC:1,2013-02-01T08:30:00Z,28.1930,-82.7890,-0.021,1111122 
COMPS,ioos:station:USF.COMPS:ANC:1,2013-02-01T08:36:00Z,28.1930,-82.7890,-0.015,1111122 
COMPS,ioos:station:USF.COMPS:ANC:1,2013-02-01T08:42:00Z,28.1930,-82.7890,-0.02,1111122 
COMPS,ioos:station:USF.COMPS:ANC:1,2013-02-01T08:48:00Z,28.1930,-82.7890,-0.01,1111122 
COMPS,ioos:station:USF.COMPS:ANC:1,2013-02-01T08:54:00Z,28.1930,-82.7890,-0.007,1111122 
COMPS,ioos:station:USF.COMPS:ANC:1,2013-02-01T09:00:00Z,28.1930,-82.7890,-0.024,1111122 
COMPS,ioos:station:USF.COMPS:ANC:1,2013-02-01T09:06:00Z,28.1930,-82.7890,-0.019,1111122 
COMPS,ioos:station:USF.COMPS:ANC:1,2013-02-01T09:12:00Z,28.1930,-82.7890,-0.009,1111122 
COMPS,ioos:station:USF.COMPS:ANC:1,2013-02-01T09:18:00Z,28.1930,-82.7890,-0.014,1111122 
COMPS,ioos:station:USF.COMPS:ANC:1,2013-02-01T09:24:00Z,28.1930,-82.7890,-0.02,1111122 
COMPS,ioos:station:USF.COMPS:ANC:1,2013-02-01T09:30:00Z,28.1930,-82.7890,-0.027,1111122 
COMPS,ioos:station:USF.COMPS:ANC:1,2013-02-01T09:36:00Z,28.1930,-82.7890,-0.032,1111122 
COMPS,ioos:station:USF.COMPS:ANC:1,2013-02-01T09:42:00Z,28.1930,-82.7890,-0.04,1111122 
COMPS,ioos:station:USF.COMPS:ANC:1,2013-02-01T09:48:00Z,28.1930,-82.7890,-0.058,1111122 
COMPS,ioos:station:USF.COMPS:ANC:1,2013-02-01T09:54:00Z,28.1930,-82.7890,-0.074,1111122 
COMPS,ioos:station:USF.COMPS:ANC:1,2013-02-01T10:00:00Z,28.1930,-82.7890,-0.079,1111122 
COMPS,ioos:station:USF.COMPS:ANC:1,2013-02-01T10:06:00Z,28.1930,-82.7890,-0.097,1111122 
COMPS,ioos:station:USF.COMPS:ANC:1,2013-02-01T10:12:00Z,28.1930,-82.7890,-0.114,1111122 
COMPS,ioos:station:USF.COMPS:ANC:1,2013-02-01T10:18:00Z,28.1930,-82.7890,-0.137,1111122 
COMPS,ioos:station:USF.COMPS:ANC:1,2013-02-01T10:24:00Z,28.1930,-82.7890,-0.155,1111122 
COMPS,ioos:station:USF.COMPS:ANC:1,2013-02-01T10:30:00Z,28.1930,-82.7890,-0.163,1111122 
COMPS,ioos:station:USF.COMPS:ANC:1,2013-02-01T10:36:00Z,28.1930,-82.7890,-0.173,1111122 
COMPS,ioos:station:USF.COMPS:ANC:1,2013-02-01T10:42:00Z,28.1930,-82.7890,-0.19,1111122 
COMPS,ioos:station:USF.COMPS:ANC:1,2013-02-01T10:48:00Z,28.1930,-82.7890,-0.212,1111122 
COMPS,ioos:station:USF.COMPS:ANC:1,2013-02-01T10:54:00Z,28.1930,-82.7890,-0.229,1111122 
COMPS,ioos:station:USF.COMPS:ANC:1,2013-02-01T11:00:00Z,28.1930,-82.7890,-0.24,1111122 
COMPS,ioos:station:USF.COMPS:ANC:1,2013-02-01T11:06:00Z,28.1930,-82.7890,-0.248,1111122 
COMPS,ioos:station:USF.COMPS:ANC:1,2013-02-01T11:12:00Z,28.1930,-82.7890,-0.261,1111122 
COMPS,ioos:station:USF.COMPS:ANC:1,2013-02-01T11:18:00Z,28.1930,-82.7890,-0.277,1111122 
COMPS,ioos:station:USF.COMPS:ANC:1,2013-02-01T11:24:00Z,28.1930,-82.7890,-0.289,1111122 
COMPS,ioos:station:USF.COMPS:ANC:1,2013-02-01T11:30:00Z,28.1930,-82.7890,-0.3,1111122 
COMPS,ioos:station:USF.COMPS:ANC:1,2013-02-01T11:36:00Z,28.1930,-82.7890,-0.323,1111122 
COMPS,ioos:station:USF.COMPS:ANC:1,2013-02-01T11:42:00Z,28.1930,-82.7890,-0.342,1111122 
COMPS,ioos:station:USF.COMPS:ANC:1,2013-02-01T11:48:00Z,28.1930,-82.7890,-0.353,1111122 
COMPS,ioos:station:USF.COMPS:ANC:1,2013-02-01T11:54:00Z,28.1930,-82.7890,-0.369,1111122 
COMPS,ioos:station:USF.COMPS:ANC:1,2013-02-01T12:00:00Z,28.1930,-82.7890,-0.386,1111122 
COMPS,ioos:station:USF.COMPS:ANC:1,2013-02-01T12:06:00Z,28.1930,-82.7890,-0.399,1111122 
COMPS,ioos:station:USF.COMPS:ANC:1,2013-02-01T12:12:00Z,28.1930,-82.7890,-0.408,1111122 
COMPS,ioos:station:USF.COMPS:ANC:1,2013-02-01T12:18:00Z,28.1930,-82.7890,-0.418,1111122 
COMPS,ioos:station:USF.COMPS:ANC:1,2013-02-01T12:24:00Z,28.1930,-82.7890,-0.431,1111122 
COMPS,ioos:station:USF.COMPS:ANC:1,2013-02-01T12:30:00Z,28.1930,-82.7890,-0.44,1111122 
COMPS,ioos:station:USF.COMPS:ANC:1,2013-02-01T12:36:00Z,28.1930,-82.7890,-0.443,1111122 
COMPS,ioos:station:USF.COMPS:ANC:1,2013-02-01T12:42:00Z,28.1930,-82.7890,-0.454,1111122 
COMPS,ioos:station:USF.COMPS:ANC:1,2013-02-01T12:48:00Z,28.1930,-82.7890,-0.47,1111122 
COMPS,ioos:station:USF.COMPS:ANC:1,2013-02-01T12:54:00Z,28.1930,-82.7890,-0.477,1111122 
COMPS,ioos:station:USF.COMPS:ANC:1,2013-02-01T13:00:00Z,28.1930,-82.7890,-0.482,1111122 
COMPS,ioos:station:USF.COMPS:ANC:1,2013-02-01T13:06:00Z,28.1930,-82.7890,-0.487,1111122 
COMPS,ioos:station:USF.COMPS:ANC:1,2013-02-01T13:12:00Z,28.1930,-82.7890,-0.493,1111122 
COMPS,ioos:station:USF.COMPS:ANC:1,2013-02-01T13:18:00Z,28.1930,-82.7890,-0.501,1111122 
COMPS,ioos:station:USF.COMPS:ANC:1,2013-02-01T13:24:00Z,28.1930,-82.7890,-0.506,1111122 
COMPS,ioos:station:USF.COMPS:ANC:1,2013-02-01T13:30:00Z,28.1930,-82.7890,-0.508,1111122 
COMPS,ioos:station:USF.COMPS:ANC:1,2013-02-01T13:36:00Z,28.1930,-82.7890,-0.537,1111122 
COMPS,ioos:station:USF.COMPS:ANC:1,2013-02-01T13:42:00Z,28.1930,-82.7890,-0.498,1111122 
COMPS,ioos:station:USF.COMPS:ANC:1,2013-02-01T13:48:00Z,28.1930,-82.7890,-0.5,1111122 
COMPS,ioos:station:USF.COMPS:ANC:1,2013-02-01T13:54:00Z,28.1930,-82.7890,-0.5,1111122 
COMPS,ioos:station:USF.COMPS:ANC:1,2013-02-01T14:00:00Z,28.1930,-82.7890,-0.5,1111122 
COMPS,ioos:station:USF.COMPS:ANC:1,2013-02-01T14:06:00Z,28.1930,-82.7890,-0.501,1111122 
COMPS,ioos:station:USF.COMPS:ANC:1,2013-02-01T14:12:00Z,28.1930,-82.7890,-0.502,1111122 
COMPS,ioos:station:USF.COMPS:ANC:1,2013-02-01T14:18:00Z,28.1930,-82.7890,-0.502,1111122 
COMPS,ioos:station:USF.COMPS:ANC:1,2013-02-01T14:24:00Z,28.1930,-82.7890,-0.503,1111122 
COMPS,ioos:station:USF.COMPS:ANC:1,2013-02-01T14:30:00Z,28.1930,-82.7890,-0.502,1111122 
COMPS,ioos:station:USF.COMPS:ANC:1,2013-02-01T14:36:00Z,28.1930,-82.7890,-0.5,1111122 
COMPS,ioos:station:USF.COMPS:ANC:1,2013-02-01T14:42:00Z,28.1930,-82.7890,-0.497,1111122 
COMPS,ioos:station:USF.COMPS:ANC:1,2013-02-01T14:48:00Z,28.1930,-82.7890,-0.493,1111122 
COMPS,ioos:station:USF.COMPS:ANC:1,2013-02-01T14:54:00Z,28.1930,-82.7890,-0.491,1111122 
COMPS,ioos:station:USF.COMPS:ANC:1,2013-02-01T15:00:00Z,28.1930,-82.7890,-0.49,1111122 
COMPS,ioos:station:USF.COMPS:ANC:1,2013-02-01T15:06:00Z,28.1930,-82.7890,-0.489,1111122 
COMPS,ioos:station:USF.COMPS:ANC:1,2013-02-01T15:12:00Z,28.1930,-82.7890,-0.489,1111122 
COMPS,ioos:station:USF.COMPS:ANC:1,2013-02-01T15:18:00Z,28.1930,-82.7890,-0.489,1111122 
COMPS,ioos:station:USF.COMPS:ANC:1,2013-02-01T15:24:00Z,28.1930,-82.7890,-0.489,1111122 
COMPS,ioos:station:USF.COMPS:ANC:1,2013-02-01T15:30:00Z,28.1930,-82.7890,-0.489,1111122 
COMPS,ioos:station:USF.COMPS:ANC:1,2013-02-01T15:36:00Z,28.1930,-82.7890,-0.489,1111122 
COMPS,ioos:station:USF.COMPS:ANC:1,2013-02-01T15:42:00Z,28.1930,-82.7890,-0.533,1111122 
COMPS,ioos:station:USF.COMPS:ANC:1,2013-02-01T15:48:00Z,28.1930,-82.7890,-0.5,1111122 
COMPS,ioos:station:USF.COMPS:ANC:1,2013-02-01T15:54:00Z,28.1930,-82.7890,-0.494,1111122 
COMPS,ioos:station:USF.COMPS:ANC:1,2013-02-01T16:00:00Z,28.1930,-82.7890,-0.485,1111122 
COMPS,ioos:station:USF.COMPS:ANC:1,2013-02-01T16:06:00Z,28.1930,-82.7890,-0.469,1111122 
COMPS,ioos:station:USF.COMPS:ANC:1,2013-02-01T16:12:00Z,28.1930,-82.7890,-0.451,1111122 
COMPS,ioos:station:USF.COMPS:ANC:1,2013-02-01T16:18:00Z,28.1930,-82.7890,-0.44,1111122 
COMPS,ioos:station:USF.COMPS:ANC:1,2013-02-01T16:24:00Z,28.1930,-82.7890,-0.428,1111122 
COMPS,ioos:station:USF.COMPS:ANC:1,2013-02-01T16:30:00Z,28.1930,-82.7890,-0.411,1111122 
COMPS,ioos:station:USF.COMPS:ANC:1,2013-02-01T16:36:00Z,28.1930,-82.7890,-0.383,1111122 
COMPS,ioos:station:USF.COMPS:ANC:1,2013-02-01T16:42:00Z,28.1930,-82.7890,-0.356,1111122 
COMPS,ioos:station:USF.COMPS:ANC:1,2013-02-01T16:48:00Z,28.1930,-82.7890,-0.335,1111122 
COMPS,ioos:station:USF.COMPS:ANC:1,2013-02-01T16:54:00Z,28.1930,-82.7890,-0.311,1111122 
COMPS,ioos:station:USF.COMPS:ANC:1,2013-02-01T17:00:00Z,28.1930,-82.7890,-0.29,1111122 
COMPS,ioos:station:USF.COMPS:ANC:1,2013-02-01T17:06:00Z,28.1930,-82.7890,-0.281,1111122 
COMPS,ioos:station:USF.COMPS:ANC:1,2013-02-01T17:12:00Z,28.1930,-82.7890,-0.266,1111122 
COMPS,ioos:station:USF.COMPS:ANC:1,2013-02-01T17:18:00Z,28.1930,-82.7890,-0.244,1111122 
COMPS,ioos:station:USF.COMPS:ANC:1,2013-02-01T17:24:00Z,28.1930,-82.7890,-0.23,1111122 
COMPS,ioos:station:USF.COMPS:ANC:1,2013-02-01T17:30:00Z,28.1930,-82.7890,-0.222,1111122 
COMPS,ioos:station:USF.COMPS:ANC:1,2013-02-01T17:36:00Z,28.1930,-82.7890,-0.211,1111122 
COMPS,ioos:station:USF.COMPS:ANC:1,2013-02-01T17:42:00Z,28.1930,-82.7890,-0.193,1111122 
COMPS,ioos:station:USF.COMPS:ANC:1,2013-02-01T17:48:00Z,28.1930,-82.7890,-0.169,1111122 
COMPS,ioos:station:USF.COMPS:ANC:1,2013-02-01T17:54:00Z,28.1930,-82.7890,-0.141,1111122 
COMPS,ioos:station:USF.COMPS:ANC:1,2013-02-01T18:00:00Z,28.1930,-82.7890,-0.122,1111122 
COMPS,ioos:station:USF.COMPS:ANC:1,2013-02-01T18:06:00Z,28.1930,-82.7890,-0.12,1111122 
COMPS,ioos:station:USF.COMPS:ANC:1,2013-02-01T18:12:00Z,28.1930,-82.7890,-0.102,1111122 
COMPS,ioos:station:USF.COMPS:ANC:1,2013-02-01T18:18:00Z,28.1930,-82.7890,-0.077,1111122 
COMPS,ioos:station:USF.COMPS:ANC:1,2013-02-01T18:24:00Z,28.1930,-82.7890,-0.07,1111122 
COMPS,ioos:station:USF.COMPS:ANC:1,2013-02-01T18:30:00Z,28.1930,-82.7890,-0.058,1111122 
COMPS,ioos:station:USF.COMPS:ANC:1,2013-02-01T18:36:00Z,28.1930,-82.7890,-0.043,1111122 
COMPS,ioos:station:USF.COMPS:ANC:1,2013-02-01T18:42:00Z,28.1930,-82.7890,-0.029,1111122 
COMPS,ioos:station:USF.COMPS:ANC:1,2013-02-01T18:48:00Z,28.1930,-82.7890,-0.012,1111122 
COMPS,ioos:station:USF.COMPS:ANC:1,2013-02-01T18:54:00Z,28.1930,-82.7890,0.0,1114422 
COMPS,ioos:station:USF.COMPS:ANC:1,2013-02-01T19:00:00Z,28.1930,-82.7890,0.014,1111122 
COMPS,ioos:station:USF.COMPS:ANC:1,2013-02-01T19:06:00Z,28.1930,-82.7890,0.017,1111122 
COMPS,ioos:station:USF.COMPS:ANC:1,2013-02-01T19:12:00Z,28.1930,-82.7890,0.011,1111122 
COMPS,ioos:station:USF.COMPS:ANC:1,2013-02-01T19:18:00Z,28.1930,-82.7890,0.018,1111122 
COMPS,ioos:station:USF.COMPS:ANC:1,2013-02-01T19:24:00Z,28.1930,-82.7890,0.015,1111122 
COMPS,ioos:station:USF.COMPS:ANC:1,2013-02-01T19:30:00Z,28.1930,-82.7890,0.015,1111122 
COMPS,ioos:station:USF.COMPS:ANC:1,2013-02-01T19:36:00Z,28.1930,-82.7890,0.03,1111122 
COMPS,ioos:station:USF.COMPS:ANC:1,2013-02-01T19:42:00Z,28.1930,-82.7890,0.042,1111122 
COMPS,ioos:station:USF.COMPS:ANC:1,2013-02-01T19:48:00Z,28.1930,-82.7890,0.041,1111122 
COMPS,ioos:station:USF.COMPS:ANC:1,2013-02-01T19:54:00Z,28.1930,-82.7890,0.051,1111122 
COMPS,ioos:station:USF.COMPS:ANC:1,2013-02-01T20:00:00Z,28.1930,-82.7890,0.08,1111122 
COMPS,ioos:station:USF.COMPS:ANC:1,2013-02-01T20:06:00Z,28.1930,-82.7890,0.073,1111122 
COMPS,ioos:station:USF.COMPS:ANC:1,2013-02-01T20:12:00Z,28.1930,-82.7890,0.063,1111122 
COMPS,ioos:station:USF.COMPS:ANC:1,2013-02-01T20:18:00Z,28.1930,-82.7890,0.083,1111122 
COMPS,ioos:station:USF.COMPS:ANC:1,2013-02-01T20:24:00Z,28.1930,-82.7890,0.09,1111122 
COMPS,ioos:station:USF.COMPS:ANC:1,2013-02-01T20:30:00Z,28.1930,-82.7890,0.101,1111122 
COMPS,ioos:station:USF.COMPS:ANC:1,2013-02-01T20:36:00Z,28.1930,-82.7890,0.101,1111122 
COMPS,ioos:station:USF.COMPS:ANC:1,2013-02-01T20:42:00Z,28.1930,-82.7890,0.088,1111122 
COMPS,ioos:station:USF.COMPS:ANC:1,2013-02-01T20:48:00Z,28.1930,-82.7890,0.077,1111122 
COMPS,ioos:station:USF.COMPS:ANC:1,2013-02-01T20:54:00Z,28.1930,-82.7890,0.078,1111122 
COMPS,ioos:station:USF.COMPS:ANC:1,2013-02-01T21:00:00Z,28.1930,-82.7890,0.073,1111122 
COMPS,ioos:station:USF.COMPS:ANC:1,2013-02-01T21:06:00Z,28.1930,-82.7890,0.066,1111122 
COMPS,ioos:station:USF.COMPS:ANC:1,2013-02-01T21:12:00Z,28.1930,-82.7890,0.061,1111122 
COMPS,ioos:station:USF.COMPS:ANC:1,2013-02-01T21:18:00Z,28.1930,-82.7890,0.055,1111122 
COMPS,ioos:station:USF.COMPS:ANC:1,2013-02-01T21:24:00Z,28.1930,-82.7890,0.051,1111122 
COMPS,ioos:station:USF.COMPS:ANC:1,2013-02-01T21:30:00Z,28.1930,-82.7890,0.048,1111122 
COMPS,ioos:station:USF.COMPS:ANC:1,2013-02-01T21:36:00Z,28.1930,-82.7890,0.032,1111122 
COMPS,ioos:station:USF.COMPS:ANC:1,2013-02-01T21:42:00Z,28.1930,-82.7890,0.02,1111122 
COMPS,ioos:station:USF.COMPS:ANC:1,2013-02-01T21:48:00Z,28.1930,-82.7890,0.016,1111122 
COMPS,ioos:station:USF.COMPS:ANC:1,2013-02-01T21:54:00Z,28.1930,-82.7890,0.001,1111122 
COMPS,ioos:station:USF.COMPS:ANC:1,2013-02-01T22:00:00Z,28.1930,-82.7890,-0.009,1111122 
COMPS,ioos:station:USF.COMPS:ANC:1,2013-02-01T22:06:00Z,28.1930,-82.7890,-0.018,1111122 
COMPS,ioos:station:USF.COMPS:ANC:1,2013-02-01T22:12:00Z,28.1930,-82.7890,-0.035,1111122 
COMPS,ioos:station:USF.COMPS:ANC:1,2013-02-01T22:18:00Z,28.1930,-82.7890,-0.049,1111122 
COMPS,ioos:station:USF.COMPS:ANC:1,2013-02-01T22:24:00Z,28.1930,-82.7890,-0.071,1111122 
COMPS,ioos:station:USF.COMPS:ANC:1,2013-02-01T22:30:00Z,28.1930,-82.7890,-0.091,1111122 
COMPS,ioos:station:USF.COMPS:ANC:1,2013-02-01T22:36:00Z,28.1930,-82.7890,-0.094,1111122 
COMPS,ioos:station:USF.COMPS:ANC:1,2013-02-01T22:42:00Z,28.1930,-82.7890,-0.098,1111122 
COMPS,ioos:station:USF.COMPS:ANC:1,2013-02-01T22:48:00Z,28.1930,-82.7890,-0.11,1111122 
COMPS,ioos:station:USF.COMPS:ANC:1,2013-02-01T22:54:00Z,28.1930,-82.7890,-0.12,1111122 
COMPS,ioos:station:USF.COMPS:ANC:1,2013-02-01T23:00:00Z,28.1930,-82.7890,-0.134,1111122 
COMPS,ioos:station:USF.COMPS:ANC:1,2013-02-01T23:06:00Z,28.1930,-82.7890,-0.152,1111122 
COMPS,ioos:station:USF.COMPS:ANC:1,2013-02-01T23:12:00Z,28.1930,-82.7890,-0.168,1111122 
COMPS,ioos:station:USF.COMPS:ANC:1,2013-02-01T23:18:00Z,28.1930,-82.7890,-0.178,1111122 
COMPS,ioos:station:USF.COMPS:ANC:1,2013-02-01T23:24:00Z,28.1930,-82.7890,-0.194,1111122 
COMPS,ioos:station:USF.COMPS:ANC:1,2013-02-01T23:30:00Z,28.1930,-82.7890,-0.214,1111122 
COMPS,ioos:station:USF.COMPS:ANC:1,2013-02-01T23:36:00Z,28.1930,-82.7890,-0.225,1111122 
COMPS,ioos:station:USF.COMPS:ANC:1,2013-02-01T23:42:00Z,28.1930,-82.7890,-0.227,1111122 
COMPS,ioos:station:USF.COMPS:ANC:1,2013-02-01T23:48:00Z,28.1930,-82.7890,-0.236,1111122 
COMPS,ioos:station:USF.COMPS:ANC:1,2013-02-01T23:54:00Z,28.1930,-82.7890,-0.253,1111122 
COMPS,ioos:station:USF.COMPS:ANC:1,2013-02-02T00:00:00Z,28.1930,-82.7890,-0.269,1111122 
COMPS,ioos:station:USF.COMPS:ANC:1,2013-02-02T00:06:00Z,28.1930,-82.7890,-0.288,1111122 
COMPS,ioos:station:USF.COMPS:ANC:1,2013-02-02T00:12:00Z,28.1930,-82.7890,-0.3,1111122 
COMPS,ioos:station:USF.COMPS:ANC:1,2013-02-02T00:18:00Z,28.1930,-82.7890,-0.307,1111122 
COMPS,ioos:station:USF.COMPS:ANC:1,2013-02-02T00:24:00Z,28.1930,-82.7890,-0.319,1111122 
COMPS,ioos:station:USF.COMPS:ANC:1,2013-02-02T00:30:00Z,28.1930,-82.7890,-0.333,1111122 
COMPS,ioos:station:USF.COMPS:ANC:1,2013-02-02T00:36:00Z,28.1930,-82.7890,-0.345,1111122 
COMPS,ioos:station:USF.COMPS:ANC:1,2013-02-02T00:42:00Z,28.1930,-82.7890,-0.362,1111122 
COMPS,ioos:station:USF.COMPS:ANC:1,2013-02-02T00:48:00Z,28.1930,-82.7890,-0.377,1111122 
COMPS,ioos:station:USF.COMPS:ANC:1,2013-02-02T00:54:00Z,28.1930,-82.7890,-0.391,1111122 
COMPS,ioos:station:USF.COMPS:ANC:1,2013-02-02T01:00:00Z,28.1930,-82.7890,-0.411,1111122 
COMPS,ioos:station:USF.COMPS:ANC:1,2013-02-02T01:06:00Z,28.1930,-82.7890,-0.427,1111122 
COMPS,ioos:station:USF.COMPS:ANC:1,2013-02-02T01:12:00Z,28.1930,-82.7890,-0.436,1111122 
COMPS,ioos:station:USF.COMPS:ANC:1,2013-02-02T01:18:00Z,28.1930,-82.7890,-0.45,1111122 
COMPS,ioos:station:USF.COMPS:ANC:1,2013-02-02T01:24:00Z,28.1930,-82.7890,-0.462,1111122 
COMPS,ioos:station:USF.COMPS:ANC:1,2013-02-02T01:30:00Z,28.1930,-82.7890,-0.472,1111122 
COMPS,ioos:station:USF.COMPS:ANC:1,2013-02-02T01:36:00Z,28.1930,-82.7890,-0.486,1111122 
COMPS,ioos:station:USF.COMPS:ANC:1,2013-02-02T01:42:00Z,28.1930,-82.7890,-0.502,1111122 
COMPS,ioos:station:USF.COMPS:ANC:1,2013-02-02T01:48:00Z,28.1930,-82.7890,-0.512,1111122 
COMPS,ioos:station:USF.COMPS:ANC:1,2013-02-02T01:54:00Z,28.1930,-82.7890,-0.512,1111122 
COMPS,ioos:station:USF.COMPS:ANC:1,2013-02-02T02:00:00Z,28.1930,-82.7890,-0.522,1111122 
COMPS,ioos:station:USF.COMPS:ANC:1,2013-02-02T02:06:00Z,28.1930,-82.7890,-0.518,1111122 
COMPS,ioos:station:USF.COMPS:ANC:1,2013-02-02T02:12:00Z,28.1930,-82.7890,-0.495,1111122 
COMPS,ioos:station:USF.COMPS:ANC:1,2013-02-02T02:18:00Z,28.1930,-82.7890,-0.494,1111122 
COMPS,ioos:station:USF.COMPS:ANC:1,2013-02-02T02:24:00Z,28.1930,-82.7890,-0.494,1111122 
COMPS,ioos:station:USF.COMPS:ANC:1,2013-02-02T02:30:00Z,28.1930,-82.7890,-0.494,1111122 
COMPS,ioos:station:USF.COMPS:ANC:1,2013-02-02T02:36:00Z,28.1930,-82.7890,-0.494,1111122 
COMPS,ioos:station:USF.COMPS:ANC:1,2013-02-02T02:42:00Z,28.1930,-82.7890,-0.494,1111122 
COMPS,ioos:station:USF.COMPS:ANC:1,2013-02-02T02:48:00Z,28.1930,-82.7890,-0.494,1111122 